CAPE
1927 1854 1854 1979 2007 1922 1824 1766 1759 1841 1833 1944 2109 2192 2224 2188 2122 2007 1706 1518 1196 889 689 427 330 19 69 135 77 46 249 140 368 107 121 94 35 46 74 64 49 2
1942 1925 1917 1998 2055 2070 1966 1900 1827 1905 1905 1897 1989 2056 2103 2074 2093 1948 1677 1503 1189 1023 758 467 371 66 94 185 145 19 216 144 361 375 184 118 60 49 78 74 59 2
1968 1989 2035 2064 2077 2141 2155 2068 1955 1951 1954 1923 1967 1978 2037 2041 2020 1861 1678 1440 1193 1084 789 485 279 86 95 231 389 320 97 143 116 332 171 368 381 365 85 128 31 5
2053 2068 2132 2178 2125 2160 2236 2222 2113 2035 2036 1942 1967 1984 1980 1958 1890 1789 1665 1376 1273 1032 659 532 154 88 86 94 406 436 209 121 101 243 206 169 250 124 75 67 202 92
2144 2183 2227 2287 2251 2179 2248 2314 2268 2153 2120 1988 1939 1966 1912 1852 1809 1792 1665 1406 1316 935 733 552 217 185 117 90 123 137 75 104 52 192 201 159 145 191 98 101 143 173
2151 2272 2334 2383 2399 2307 2260 2341 2382 2292 2203 2077 1974 1972 1893 1865 1786 1764 1651 1454 1179 1052 849 540 411 373 210 142 92 46 40 84 105 115 338 187 143 200 191 142 110 138
2184 2306 2422 2462 2486 2457 2359 2351 2420 2379 2303 2199 2075 2016 1936 1876 1835 1744 1628 1427 1271 1193 894 527 441 423 444 281 128 367 21 51 93 117 174 230 196 198 199 186 127 76
2368 2378 2458 2515 2539 2548 2494 2400 2447 2444 2340 2243 2202 2111 2027 1927 1895 1834 1741 1544 1443 1291 893 585 480 461 492 484 454 449 426 305 67 132 107 168 214 225 194 207 149 90
2612 2572 2548 2592 2594 2583 2575 2501 2479 2510 2440 2378 2309 2239 2147 2054 1985 1947 1897 1748 1566 1307 919 663 598 618 371 497 527 505 491 458 256 104 144 177 179 309 177 132 88 84
2761 2751 2691 2678 2679 2651 2622 2593 2541 2551 2532 2473 2420 2342 2281 2210 2120 2038 1958 1807 1506 1235 957 748 684 708 558 404 484 517 515 518 509 379 140 137 110 161 319 460 446 400
2800 2827 2786 2745 2746 2715 2675 2634 2600 2599 2619 2577 2518 2440 2382 2322 2246 2144 2018 1832 1491 1180 979 811 748 737 640 469 438 472 521 528 518 468 286 133 99 85 398 435 420 341
2842 2857 2835 2784 2756 2753 2713 2673 2648 2601 2631 2662 2616 2542 2478 2421 2334 2228 2132 1940 1596 1210 967 852 790 756 676 517 468 468 500 543 531 458 294 145 114 65 123 176 431 124
2887 2892 2875 2831 2766 2749 2729 2697 2645 2615 2605 2675 2680 2627 2536 2474 2409 2324 2193 2032 1788 1484 1248 1115 1032 971 888 642 481 491 492 522 500 471 426 185 171 108 77 91 76 61
2926 2919 2916 2877 2811 2771 2730 2672 2631 2626 2611 2648 2701 2688 2631 2516 2435 2364 2250 2094 1921 1745 1536 1378 1255 1150 1058 876 548 495 530 557 510 272 472 491 471 265 209 128 136 96
2967 2955 2928 2893 2837 2781 2718 2645 2594 2611 2617 2612 2671 2726 2703 2634 2532 2410 2310 2188 2046 1895 1726 1568 1464 1354 1233 1063 786 549 550 604 591 303 417 500 540 545 498 468 137 134
3037 3000 2962 2915 2858 2767 2696 2642 2584 2581 2598 2593 2623 2710 2750 2726 2648 2539 2421 2293 2139 2013 1849 1709 1632 1558 1450 1282 1036 818 638 638 614 358 361 344 313 429 290 165 170 183
3116 3066 2988 2949 2881 2801 2724 2652 2588 2566 2560 2568 2598 2658 2726 2747 2725 2653 2553 2433 2294 2140 1972 1832 1773 1717 1640 1474 1295 1098 997 767 522 439 573 557 507 394 390 262 180 489
3240 3156 3069 3002 2929 2880 2828 2759 2673 2608 2564 2532 2553 2604 2673 2748 2726 2694 2639 2555 2459 2346 2201 2050 1924 1833 1736 1637 1453 1396 1208 925 701 540 579 585 557 389 346 284 243 129
3326 3248 3182 3081 3000 2953 2917 2885 2812 2736 2655 2582 2552 2596 2666 2726 2743 2734 2709 2648 2573 2510 2410 2308 2167 2035 1892 1736 1589 1343 1366 1127 876 669 530 546 402 377 363 179 87 140
3408 3328 3243 3166 3094 3036 2999 2983 2928 2870 2797 2727 2661 2644 2685 2747 2774 2772 2743 2704 2662 2607 2528 2439 2351 2242 2130 2020 1894 1745 1683 1190 1078 863 548 428 361 388 390 369 97 159
3501 3432 3351 3276 3189 3114 3065 3068 3035 2989 2951 2901 2839 2786 2773 2806 2839 2845 2827 2806 2747 2692 2624 2553 2482 2402 2304 2231 2188 2169 2019 1414 663 522 628 493 430 362 326 470 168 230
3592 3518 3473 3408 3333 3252 3159 3144 3140 3108 3081 3060 3004 2960 2929 2908 2882 2888 2912 2888 2864 2807 2734 2669 2605 2518 2566 2620 2612 2537 2300 1674 1211 797 726 714 579 408 480 443 398 407
3677 3606 3560 3524 3482 3407 3281 3196 3222 3232 3208 3197 3150 3106 3072 3044 3035 3021 3000 2989 2962 2905 2867 2825 2803 2829 2900 2938 2908 2776 2566 1870 1788 1493 1235 928 647 557 521 591 613 618
3750 3718 3661 3614 3570 3497 3389 3272 3282 3320 3333 3304 3281 3264 3232 3220 3190 3172 3165 3155 3133 3098 3083 3104 3115 3151 3190 3189 3094 2851 2640 2350 2020 1582 1307 936 824 664 650 800 841 1010
3767 3812 3760 3681 3606 3550 3440 3320 3335 3398 3409 3402 3412 3376 3353 3337 3338 3341 3339 3327 3323 3334 3363 3351 3394 3398 3393 3316 3169 2913 2696 2352 1928 1636 1222 972 845 583 595 698 811 1188
3718 3824 3815 3752 3673 3580 3499 3402 3436 3464 3464 3479 3501 3500 3486 3472 3450 3468 3465 3473 3462 3517 3558 3574 3543 3518 3420 3232 3011 2817 2567 2147 1788 1582 1266 1096 946 826 737 457 663 706
Wind_Speed
12 12 13 12 12 12 13 14 15 17 16 15 14 13 13 13 13 15 16 16 17 17 17 18 18 nan nan 20 nan nan 21 22 23 24 26 nan nan nan nan nan nan nan
14 14 14 14 12 12 12 13 15 17 16 14 12 11 11 12 13 14 16 17 17 17 17 18 19 nan nan 21 22 nan 21 23 25 24 27 28 nan nan nan nan nan nan
16 15 15 15 14 14 14 13 14 15 14 12 10 9 9 10 13 13 14 16 18 17 17 18 20 nan nan 21 22 22 nan 23 26 26 28 30 30 31 nan 27 nan nan
15 16 16 16 15 15 14 12 11 12 11 9 7 7 8 9 11 13 13 16 17 17 17 19 21 nan nan nan 23 23 24 25 27 28 30 29 30 32 nan nan 28 nan
15 15 15 15 14 13 12 10 9 9 9 7 6 7 8 10 11 13 14 15 16 17 18 20 20 22 22 nan 24 24 nan 26 nan 29 31 31 30 30 nan 31 30 28
13 13 14 14 13 11 9 7 6 6 7 6 7 7 8 11 12 13 15 16 17 18 20 21 22 23 25 26 nan nan nan nan 28 30 32 32 30 29 29 31 32 32
11 12 12 12 10 8 6 5 4 4 4 5 6 8 9 10 11 13 15 16 18 19 21 23 24 25 26 28 29 29 nan nan nan 32 33 32 32 31 30 32 33 nan
9 11 11 10 8 5 4 4 3 2 3 5 8 8 9 11 12 12 14 17 18 20 22 23 25 27 29 30 31 31 32 31 nan 33 33 33 33 34 34 33 34 nan
9 9 10 8 6 4 2 2 2 2 3 6 8 8 8 9 11 13 16 18 19 21 23 24 26 29 30 31 31 32 34 33 32 33 34 34 35 35 36 35 nan nan
9 9 9 7 5 3 2 1 2 2 3 5 7 7 8 8 11 14 16 18 20 22 24 25 28 28 30 30 32 34 35 36 35 35 35 35 35 35 35 35 35 35
9 9 8 7 5 4 2 1 1 3 4 6 6 6 7 9 10 13 15 17 20 23 25 27 29 30 30 31 32 34 36 38 38 37 36 34 nan nan 35 35 35 36
10 9 8 7 6 4 3 2 2 4 5 5 5 5 7 9 11 12 14 18 20 23 26 28 29 30 32 33 34 35 36 38 39 39 37 36 35 nan 35 35 36 37
12 11 9 8 7 5 5 4 3 4 4 3 4 5 7 9 9 12 14 18 21 23 26 29 30 31 32 33 34 34 36 39 40 40 38 38 38 37 nan nan nan nan
14 13 11 10 9 8 7 5 4 3 3 4 6 5 6 7 10 14 16 18 22 25 27 29 30 31 32 34 34 35 36 38 40 40 39 38 37 34 34 34 35 nan
15 15 13 12 12 10 8 5 3 4 5 7 6 5 5 6 11 15 17 19 23 26 29 30 32 32 33 36 37 36 37 38 39 39 38 38 37 36 34 33 34 36
17 17 16 15 13 11 8 5 5 6 8 7 6 4 5 9 12 16 18 20 24 27 29 31 32 32 36 43 43 40 40 38 36 38 38 38 40 39 35 34 34 34
19 18 19 17 15 12 10 8 7 9 9 9 8 6 7 11 13 16 18 21 25 28 31 32 33 35 42 45 48 50 43 34 30 35 37 37 38 38 36 35 33 33
21 21 20 18 17 14 12 11 11 11 10 10 9 8 10 13 14 16 18 22 24 28 31 32 34 39 45 49 53 56 47 39 37 38 38 37 37 37 35 34 33 33
24 24 21 20 18 17 16 16 14 12 11 10 8 10 14 14 14 17 20 23 27 30 31 33 34 41 46 50 57 62 55 47 42 41 40 39 39 38 36 35 nan 35
27 26 23 21 21 21 20 19 16 13 13 12 12 13 15 14 15 18 21 25 29 31 32 34 36 41 47 52 60 64 62 52 39 37 38 40 40 39 39 39 nan 38
28 27 25 24 24 23 22 20 18 16 15 15 14 14 15 16 18 20 23 27 31 33 34 35 37 44 49 55 58 60 61 57 44 42 43 43 42 43 44 43 42 41
29 28 28 28 27 26 23 21 19 18 16 17 16 16 16 17 18 21 25 29 33 35 37 37 39 49 53 57 58 56 58 55 50 48 47 47 46 47 48 47 46 44
29 30 31 31 30 28 24 21 20 18 18 21 19 18 19 19 21 23 27 32 35 37 39 39 41 50 57 60 60 61 58 52 50 48 47 48 49 49 50 49 47 46
30 31 32 33 33 30 25 22 20 20 20 23 22 21 21 22 23 26 29 33 37 39 41 42 44 51 61 63 64 65 61 53 49 47 47 47 47 47 48 48 48 53
32 32 33 34 33 31 28 23 21 22 23 25 23 24 24 25 26 28 31 33 36 38 43 46 47 52 62 64 62 58 53 46 46 46 47 46 47 48 48 49 49 50
33 32 33 34 34 33 30 25 24 26 27 27 26 26 27 28 29 31 33 33 35 38 41 45 48 50 53 57 52 51 51 45 45 47 47 48 49 50 51 48 49 48
Wind_Direction
302 297 299 299 301 302 304 305 301 309 312 311 314 320 329 333 334 339 339 339 342 342 346 349 347 nan nan 344 nan nan 346 346 344 342 341 nan nan nan nan nan nan nan
304 299 292 291 289 289 294 301 303 307 309 311 314 320 329 332 345 343 339 340 343 349 347 344 343 nan nan 340 341 nan 343 341 341 337 339 340 nan nan nan nan nan nan
295 294 294 293 294 298 301 300 300 300 303 310 313 322 334 341 344 346 343 341 345 348 345 340 339 nan nan 338 338 339 nan 340 341 339 338 342 341 342 nan 340 nan nan
293 294 292 292 291 295 294 294 294 291 293 300 318 329 340 340 340 346 346 344 342 343 340 336 339 nan nan nan 336 338 340 342 343 340 340 341 342 343 nan nan 338 nan
293 291 287 285 283 284 284 292 299 294 301 308 315 333 341 340 340 343 342 342 339 338 335 338 336 337 337 nan 335 338 nan 344 nan 344 343 344 345 344 nan 343 342 339
284 283 281 280 279 280 282 288 297 299 297 307 337 334 344 344 342 342 340 340 336 334 336 336 337 339 337 336 nan nan nan nan 349 347 347 346 346 348 346 345 344 343
285 279 279 272 274 278 280 284 288 293 298 315 315 345 339 343 344 343 339 337 333 333 336 337 339 341 340 341 347 355 nan nan nan 350 349 347 345 348 347 344 344 nan
286 275 274 270 278 276 276 277 280 286 299 307 344 343 339 342 342 336 332 332 333 336 337 340 342 343 344 347 353 356 357 355 nan 352 349 348 345 346 345 341 340 nan
284 279 277 282 290 274 289 287 270 272 299 336 339 337 335 338 335 330 329 331 335 338 339 341 343 346 349 351 354 355 356 356 355 353 351 348 346 344 340 336 nan nan
291 283 290 295 302 276 300 289 255 274 317 336 334 324 332 331 327 326 325 333 339 340 340 340 343 348 351 352 353 354 353 353 352 351 350 346 342 338 334 332 332 331
302 294 302 309 308 275 304 294 294 299 307 333 322 325 322 317 319 318 327 335 341 339 338 341 345 349 351 351 351 350 350 349 349 349 347 342 nan nan 331 330 330 331
315 308 313 317 312 298 299 292 302 304 310 313 318 318 306 313 317 318 331 339 338 336 337 340 343 348 349 348 350 349 347 346 346 346 345 342 338 nan 335 332 330 330
325 321 306 301 296 285 267 271 294 307 303 304 288 298 303 306 313 327 333 335 334 332 336 337 342 347 345 343 345 346 344 343 342 342 343 344 342 339 nan nan nan nan
323 316 307 297 283 278 278 284 288 280 266 252 258 283 300 310 320 331 331 329 329 330 332 335 340 342 341 340 340 341 338 337 337 340 344 345 342 339 335 334 334 nan
305 304 300 295 291 289 293 292 274 257 251 252 254 260 268 309 319 325 328 329 325 327 330 333 337 339 337 335 334 334 331 331 336 343 345 342 338 338 337 335 332 335
293 292 296 296 297 301 298 279 247 248 256 259 253 252 283 306 315 321 327 327 324 326 328 330 335 335 338 339 333 327 325 327 334 342 342 338 338 339 337 335 335 334
283 286 290 298 303 298 285 268 253 248 255 255 246 256 298 308 311 318 322 320 323 324 326 329 334 337 341 336 331 323 316 318 331 336 336 338 339 341 340 337 334 332
287 283 288 296 297 300 290 268 251 249 253 250 247 275 294 296 305 315 316 315 316 320 324 330 336 341 340 334 324 309 311 339 335 332 336 339 338 340 339 335 334 330
288 285 288 290 297 298 285 268 257 250 252 248 256 277 285 292 302 306 311 313 316 321 326 332 336 339 337 328 314 313 336 340 328 333 337 338 338 339 337 334 nan 328
289 288 287 290 290 287 282 277 267 259 251 245 250 267 282 292 299 309 311 315 318 322 327 331 334 333 330 319 314 324 337 333 323 332 332 334 336 335 333 333 nan 329
288 289 289 287 285 284 284 282 275 260 252 247 255 274 287 296 304 310 314 315 317 322 326 328 329 326 320 317 322 326 328 322 332 329 329 333 333 332 333 333 332 330
287 287 286 283 284 284 284 282 275 268 262 256 261 271 278 286 296 307 313 314 318 323 325 326 322 320 318 320 323 324 321 318 324 326 328 330 329 329 331 331 330 329
284 284 284 285 286 286 284 281 275 269 264 261 267 276 285 295 304 309 308 313 318 321 322 321 315 318 319 320 320 321 315 316 318 319 323 325 325 326 327 326 325 325
281 281 282 285 286 287 284 276 270 266 270 268 274 282 290 297 300 303 307 313 317 319 319 319 314 318 319 319 319 319 319 315 316 319 323 321 319 319 320 321 322 324
278 279 280 283 286 285 277 273 270 270 268 269 274 280 287 288 294 303 305 309 315 317 321 322 316 318 319 319 322 324 320 316 318 319 321 322 319 318 317 318 321 322
272 275 277 280 283 279 272 269 265 264 267 272 275 278 282 285 291 297 305 310 311 317 321 321 314 311 317 323 327 327 327 321 318 319 323 322 316 316 316 316 318 319